| time (UTC) | temp F | wind direction | speed knots | gust knots | rain 1hr in | rain 24hr in | rain mn in | humidity % | barometer mb |
| 20260904171456 | 93 | 194 | 0.0 | 0.9 | 0.00 | 0.00 | 0.00 | 61 | 1015.2 |
| 20260904164454 | 93 | 271 | 0.9 | 0.9 | 0.00 | 0.00 | 0.00 | 63 | 1015.3 |
| 20260904161453 | 90 | 314 | 0.9 | 1.7 | 0.00 | 0.00 | 0.00 | 69 | 1015.4 |
| 20260904154449 | 87 | 197 | 2.6 | 2.6 | 0.00 | 0.00 | 0.00 | 74 | 1015.5 |
| 20260904151444 | 86 | 184 | 0.9 | 1.7 | 0.00 | 0.00 | 0.00 | 79 | 1015.3 |
| 20260904144442 | 83 | 185 | 1.7 | 1.7 | 0.00 | 0.00 | 0.00 | 85 | 1015.2 |
| 20260904141439 | 82 | 200 | 1.7 | 1.7 | 0.00 | 0.00 | 0.00 | 88 | 1015.2 |
| 20260904134436 | 81 | 289 | 0.0 | 0.0 | 0.00 | 0.00 | 0.00 | 90 | 1015.0 |
| 20260904131435 | 79 | 154 | 0.0 | 0.0 | 0.00 | 0.00 | 0.00 | 93 | 1014.7 |
| 20260904124434 | 77 | 193 | 1.7 | 2.6 | 0.00 | 0.00 | 0.00 | 95 | 1014.6 |
| 20260904121433 | 76 | 10 | 0.0 | 0.0 | 0.00 | 0.00 | 0.00 | 95 | 1014.4 |
| 20260904114433 | 76 | 294 | 0.0 | 0.0 | 0.00 | 0.00 | 0.00 | 95 | 1014.4 |
| 20260904111432 | 77 | 310 | 0.0 | 0.0 | 0.00 | 0.00 | 0.00 | 94 | 1014.2 |
| 20260904104430 | 77 | 327 | 0.0 | 0.0 | 0.00 | 0.00 | 0.00 | 92 | 1014.1 |
| 20260904101429 | 77 | 338 | 0.0 | 0.0 | 0.00 | 0.00 | 0.00 | 91 | 1013.8 |
| 20260904094428 | 78 | 176 | 0.0 | 0.0 | 0.00 | 0.00 | 0.00 | 90 | 1013.6 |
| 20260904091426 | 78 | 152 | 1.7 | 1.7 | 0.00 | 0.00 | 0.00 | 89 | 1013.8 |
| 20260904084421 | 78 | 222 | 0.9 | 0.9 | 0.00 | 0.00 | 0.00 | 88 | 1013.6 |
| 20260904081421 | 79 | 289 | 0.0 | 0.0 | 0.00 | 0.00 | 0.00 | 87 | 1013.8 |
| 20260904074421 | 79 | 183 | 0.0 | 0.0 | 0.00 | 0.00 | 0.00 | 86 | 1013.5 |
| 20260904071417 | 79 | 174 | 1.7 | 2.6 | 0.00 | 0.00 | 0.00 | 85 | 1013.6 |
| 20260904064414 | 80 | 205 | 0.0 | 0.9 | 0.00 | 0.00 | 0.00 | 84 | 1013.9 |
| 20260904061412 | 80 | 197 | 0.9 | 0.9 | 0.00 | 0.00 | 0.00 | 82 | 1013.7 |
| 20260904054409 | 80 | 198 | 0.9 | 0.9 | 0.00 | 0.00 | 0.00 | 80 | 1013.9 |
| 20260904051405 | 81 | 158 | 2.6 | 6.1 | 0.00 | 0.00 | 0.00 | 79 | 1013.7 |
| 20260904044406 | 81 | 199 | 2.6 | 2.6 | 0.00 | 0.00 | 0.00 | 78 | 1013.9 |
| 20260904041403 | 82 | 184 | 2.6 | 5.2 | 0.00 | 0.00 | 0.00 | 77 | 1013.9 |
| 20260904034404 | 82 | 178 | 2.6 | 4.3 | 0.00 | 0.00 | 0.00 | 74 | 1014.0 |
| 20260904031359 | 82 | 158 | 2.6 | 2.6 | 0.00 | 0.00 | 0.00 | 72 | 1013.9 |
| 20260904024359 | 83 | 119 | 0.9 | 0.9 | 0.00 | 0.00 | 0.00 | 71 | 1013.5 |
| 20260904021356 | 83 | 194 | 1.7 | 1.7 | 0.00 | 0.00 | 0.00 | 71 | 1013.0 |
| 20260904014352 | 84 | 75 | 0.9 | 0.9 | 0.00 | 0.00 | 0.00 | 75 | 1012.7 |
| 20260904011351 | 85 | 235 | 0.0 | 0.9 | 0.00 | 0.00 | 0.00 | 75 | 1012.5 |
| 20260904004349 | 86 | 157 | 2.6 | 2.6 | 0.00 | 0.00 | 0.00 | 69 | 1012.1 |
| 20260904001348 | 87 | 158 | 0.9 | 4.3 | 0.00 | 0.00 | 0.00 | 70 | 1012.0 |
| 20260903234346 | 88 | 103 | 0.9 | 1.7 | 0.00 | 0.00 | 0.00 | 68 | 1011.7 |
| 20260903231345 | 89 | 151 | 2.6 | 2.6 | 0.00 | 0.00 | 0.00 | 66 | 1011.7 |
| 20260903224343 | 91 | 185 | 0.9 | 0.9 | 0.00 | 0.00 | 0.00 | 63 | 1011.5 |
| 20260903221343 | 92 | 285 | 2.6 | 4.3 | 0.00 | 0.00 | 0.00 | 61 | 1011.3 |
| 20260903214343 | 91 | 202 | 3.5 | 5.2 | 0.00 | 0.00 | 0.00 | 64 | 1011.9 |
| 20260903211343 | 90 | 280 | 0.9 | 1.7 | 0.00 | 0.00 | 0.00 | 66 | 1012.0 |
| 20260903204341 | 90 | 187 | 0.9 | 1.7 | 0.00 | 0.00 | 0.00 | 67 | 1012.2 |
| 20260903201340 | 90 | 191 | 0.9 | 1.7 | 0.00 | 0.00 | 0.00 | 67 | 1012.5 |
| 20260903194339 | 88 | 231 | 0.9 | 1.7 | 0.00 | 0.00 | 0.00 | 70 | 1013.0 |
| 20260903191338 | 86 | 188 | 3.5 | 4.3 | 0.00 | 0.00 | 0.00 | 73 | 1013.2 |
| 20260903184336 | 86 | 168 | 2.6 | 4.3 | 0.00 | 0.00 | 0.00 | 74 | 1013.7 |
| 20260903181331 | 85 | 186 | 2.6 | 4.3 | 0.00 | 0.00 | 0.00 | 76 | 1013.9 |
| 20260903174326 | 83 | 186 | 3.5 | 5.2 | 0.00 | 0.00 | 0.00 | 79 | 1014.4 |